| time (UTC) | temp F | wind direction | speed MPH | gust MPH | rain 1hr in | rain 24hr in | rain mn in | humidity % | barometer mb |
| 20260510194404 | 47 | 213 | 0.0 | 1.0 | 0.01 | 0.02 | 0.02 | 91 | 1013.3 |
| 20260510193903 | 47 | 213 | 1.0 | 3.0 | 0.01 | 0.02 | 0.02 | 91 | 1013.5 |
| 20260510193405 | 48 | 213 | 3.0 | 9.0 | 0.01 | 0.02 | 0.02 | 91 | 1013.6 |
| 20260510192904 | 48 | 232 | 3.0 | 9.0 | 0.01 | 0.02 | 0.02 | 90 | 1013.6 |
| 20260510192404 | 48 | 229 | 1.0 | 3.0 | 0.01 | 0.02 | 0.02 | 90 | 1013.6 |
| 20260510191904 | 48 | 229 | 1.0 | 3.0 | 0.01 | 0.02 | 0.02 | 90 | 1013.6 |
| 20260510191405 | 48 | 229 | 0.0 | 3.0 | 0.01 | 0.02 | 0.02 | 90 | 1013.8 |
| 20260510190404 | 48 | 229 | 1.0 | 3.0 | 0.01 | 0.02 | 0.02 | 89 | 1014.0 |
| 20260510185405 | 48 | 229 | 0.0 | 3.0 | 0.00 | 0.01 | 0.01 | 88 | 1014.0 |
| 20260510184905 | 48 | 229 | 2.0 | 7.0 | 0.01 | 0.01 | 0.01 | 87 | 1014.0 |
| 20260510184404 | 48 | 232 | 3.0 | 6.0 | 0.01 | 0.01 | 0.01 | 87 | 1014.1 |
| 20260510183904 | 48 | 232 | 1.0 | 7.0 | 0.01 | 0.01 | 0.01 | 87 | 1014.1 |
| 20260510183404 | 48 | 234 | 1.0 | 5.0 | 0.01 | 0.01 | 0.01 | 87 | 1014.1 |
| 20260510182904 | 48 | 238 | 1.0 | 8.0 | 0.01 | 0.01 | 0.01 | 88 | 1014.1 |
| 20260510182404 | 48 | 250 | 0.0 | 3.0 | 0.01 | 0.01 | 0.01 | 89 | 1014.2 |
| 20260510181905 | 48 | 250 | 0.0 | 3.0 | 0.01 | 0.01 | 0.01 | 89 | 1014.4 |
| 20260510181404 | 48 | 250 | 1.0 | 3.0 | 0.01 | 0.01 | 0.01 | 89 | 1014.5 |
| 20260510180904 | 48 | 250 | 1.0 | 6.0 | 0.01 | 0.01 | 0.01 | 88 | 1014.6 |
| 20260510180405 | 48 | 256 | 1.0 | 3.0 | 0.01 | 0.01 | 0.01 | 88 | 1014.8 |
| 20260510175904 | 49 | 256 | 2.0 | 5.0 | 0.01 | 0.01 | 0.01 | 88 | 1014.8 |
| 20260510175404 | 49 | 249 | 0.0 | 3.0 | 0.01 | 0.01 | 0.01 | 88 | 1014.9 |
| 20260510174903 | 49 | 249 | 3.0 | 8.0 | 0.00 | 0.00 | 0.00 | 87 | 1015.0 |
| 20260510173905 | 49 | 296 | 2.0 | 8.0 | 0.00 | 0.00 | 0.00 | 87 | 1015.2 |
| 20260510173406 | 49 | 316 | 1.0 | 5.0 | 0.00 | 0.00 | 0.00 | 86 | 1015.2 |
| 20260510172904 | 49 | 321 | 2.0 | 6.0 | 0.00 | 0.00 | 0.00 | 86 | 1015.2 |
| 20260510172403 | 49 | 346 | 2.0 | 7.0 | 0.00 | 0.00 | 0.00 | 87 | 1015.3 |
| 20260510171904 | 49 | 279 | 2.0 | 7.0 | 0.00 | 0.00 | 0.00 | 87 | 1015.4 |
| 20260510171405 | 49 | 305 | 1.0 | 3.0 | 0.00 | 0.00 | 0.00 | 86 | 1015.4 |
| 20260510170904 | 49 | 307 | 3.0 | 8.0 | 0.00 | 0.00 | 0.00 | 86 | 1015.5 |
| 20260510170404 | 49 | 281 | 1.0 | 3.0 | 0.00 | 0.00 | 0.00 | 86 | 1015.6 |
| 20260510165904 | 49 | 280 | 2.0 | 3.0 | 0.00 | 0.00 | 0.00 | 85 | 1015.7 |
| 20260510165405 | 49 | 285 | 2.0 | 6.0 | 0.00 | 0.00 | 0.00 | 84 | 1015.7 |
| 20260510164904 | 50 | 298 | 1.0 | 6.0 | 0.00 | 0.00 | 0.00 | 84 | 1015.8 |
| 20260510164405 | 50 | 298 | 3.0 | 10.0 | 0.00 | 0.00 | 0.00 | 83 | 1015.9 |
| 20260510163904 | 50 | 268 | 2.0 | 8.0 | 0.00 | 0.00 | 0.00 | 83 | 1015.9 |
| 20260510163404 | 50 | 259 | 1.0 | 8.0 | 0.00 | 0.00 | 0.00 | 84 | 1016.1 |
| 20260510162404 | 50 | 246 | 0.0 | 3.0 | 0.00 | 0.00 | 0.00 | 84 | 1016.2 |
| 20260510161904 | 50 | 246 | 2.0 | 5.0 | 0.00 | 0.00 | 0.00 | 84 | 1016.4 |
| 20260510161404 | 50 | 247 | 0.0 | 6.0 | 0.00 | 0.00 | 0.00 | 84 | 1016.5 |
| 20260510160905 | 50 | 233 | 4.0 | 8.0 | 0.00 | 0.00 | 0.00 | 85 | 1016.6 |
| 20260510155904 | 49 | 229 | 2.0 | 9.0 | 0.00 | 0.00 | 0.00 | 86 | 1016.9 |
| 20260510155404 | 49 | 231 | 2.0 | 6.0 | 0.00 | 0.00 | 0.00 | 85 | 1016.9 |
| 20260510154905 | 49 | 232 | 4.0 | 9.0 | 0.00 | 0.00 | 0.00 | 85 | 1017.0 |
| 20260510154404 | 49 | 256 | 2.0 | 8.0 | 0.00 | 0.00 | 0.00 | 84 | 1017.2 |
| 20260510152904 | 49 | 269 | 2.0 | 7.0 | 0.00 | 0.00 | 0.00 | 83 | 1017.6 |
| 20260510152404 | 49 | 274 | 1.0 | 6.0 | 0.00 | 0.00 | 0.00 | 83 | 1017.7 |
| 20260510151904 | 49 | 274 | 2.0 | 9.0 | 0.00 | 0.00 | 0.00 | 83 | 1017.9 |
| 20260510151404 | 50 | 263 | 1.0 | 5.0 | 0.00 | 0.00 | 0.00 | 82 | 1018.0 |
| 20260510150905 | 50 | 264 | 1.0 | 5.0 | 0.00 | 0.00 | 0.00 | 81 | 1018.1 |
| 20260510150403 | 50 | 264 | 2.0 | 8.0 | 0.00 | 0.00 | 0.00 | 80 | 1018.2 |
| 20260510145905 | 50 | 249 | 2.0 | 7.0 | 0.00 | 0.00 | 0.00 | 81 | 1018.3 |
| 20260510145404 | 50 | 248 | 3.0 | 7.0 | 0.00 | 0.00 | 0.00 | 81 | 1018.3 |
| 20260510144905 | 50 | 265 | 1.0 | 6.0 | 0.00 | 0.00 | 0.00 | 81 | 1018.4 |
| 20260510143905 | 51 | 220 | 1.0 | 6.0 | 0.00 | 0.00 | 0.00 | 80 | 1018.5 |
| 20260510143405 | 51 | 217 | 2.0 | 13.0 | 0.00 | 0.00 | 0.00 | 78 | 1018.6 |
| 20260510142904 | 51 | 222 | 2.0 | 7.0 | 0.00 | 0.00 | 0.00 | 78 | 1018.6 |
| 20260510142403 | 51 | 229 | 3.0 | 8.0 | 0.00 | 0.00 | 0.00 | 77 | 1018.8 |
| 20260510141904 | 51 | 230 | 2.0 | 7.0 | 0.00 | 0.00 | 0.00 | 76 | 1018.7 |
| 20260510140904 | 51 | 215 | 2.0 | 6.0 | 0.00 | 0.00 | 0.00 | 77 | 1018.7 |
| 20260510140403 | 51 | 215 | 2.0 | 7.0 | 0.00 | 0.00 | 0.00 | 78 | 1018.9 |
| 20260510135903 | 51 | 215 | 1.0 | 6.0 | 0.00 | 0.00 | 0.00 | 80 | 1019.0 |
| 20260510135403 | 51 | 213 | 5.0 | 9.0 | 0.00 | 0.00 | 0.00 | 79 | 1019.1 |
| 20260510134904 | 51 | 211 | 6.0 | 10.0 | 0.00 | 0.00 | 0.00 | 78 | 1019.2 |
| 20260510133904 | 51 | 215 | 5.0 | 9.0 | 0.00 | 0.00 | 0.00 | 80 | 1019.3 |
| 20260510133403 | 50 | 225 | 2.0 | 7.0 | 0.00 | 0.00 | 0.00 | 80 | 1019.4 |
| 20260510132903 | 50 | 226 | 1.0 | 6.0 | 0.00 | 0.00 | 0.00 | 81 | 1019.5 |
| 20260510132403 | 50 | 226 | 4.0 | 8.0 | 0.00 | 0.00 | 0.00 | 80 | 1019.6 |
| 20260510131904 | 50 | 250 | 0.0 | 3.0 | 0.00 | 0.00 | 0.00 | 79 | 1019.7 |
| 20260510131404 | 50 | 250 | 3.0 | 7.0 | 0.00 | 0.00 | 0.00 | 78 | 1019.8 |
| 20260510130903 | 50 | 281 | 1.0 | 6.0 | 0.00 | 0.00 | 0.00 | 77 | 1019.9 |
| 20260510130404 | 51 | 281 | 1.0 | 3.0 | 0.00 | 0.00 | 0.00 | 76 | 1019.9 |
| 20260510125905 | 51 | 283 | 4.0 | 12.0 | 0.00 | 0.00 | 0.00 | 74 | 1020.0 |
| 20260510125404 | 52 | 216 | 2.0 | 3.0 | 0.00 | 0.00 | 0.00 | 70 | 1020.1 |
| 20260510124903 | 52 | 216 | 3.0 | 8.0 | 0.00 | 0.00 | 0.00 | 70 | 1019.8 |
| 20260510124405 | 53 | 215 | 1.0 | 5.0 | 0.00 | 0.00 | 0.00 | 70 | 1019.8 |
| 20260510123904 | 52 | 215 | 2.0 | 6.0 | 0.00 | 0.00 | 0.00 | 71 | 1019.8 |
| 20260510123406 | 52 | 215 | 1.0 | 3.0 | 0.00 | 0.00 | 0.00 | 73 | 1019.9 |
| 20260510122905 | 52 | 215 | 2.0 | 6.0 | 0.00 | 0.00 | 0.00 | 74 | 1019.9 |
| 20260510121404 | 52 | 215 | 5.0 | 9.0 | 0.00 | 0.00 | 0.00 | 72 | 1020.2 |
| 20260510120904 | 52 | 211 | 6.0 | 9.0 | 0.00 | 0.00 | 0.00 | 71 | 1020.4 |
| 20260510120406 | 52 | 214 | 2.0 | 7.0 | 0.00 | 0.00 | 0.00 | 72 | 1020.5 |
| 20260510114404 | 51 | 208 | 4.0 | 9.0 | 0.00 | 0.00 | 0.00 | 73 | 1020.9 |
| 20260510113904 | 51 | 209 | 2.0 | 5.0 | 0.00 | 0.00 | 0.00 | 73 | 1020.9 |
| 20260510113404 | 50 | 209 | 1.0 | 6.0 | 0.00 | 0.00 | 0.00 | 74 | 1021.0 |
| 20260510112905 | 50 | 208 | 6.0 | 9.0 | 0.00 | 0.00 | 0.00 | 72 | 1021.1 |
| 20260510111904 | 50 | 213 | 5.0 | 12.0 | 0.00 | 0.00 | 0.00 | 72 | 1021.3 |
| 20260510111404 | 51 | 214 | 6.0 | 10.0 | 0.00 | 0.00 | 0.00 | 71 | 1021.3 |
| 20260510110904 | 51 | 206 | 2.0 | 9.0 | 0.00 | 0.00 | 0.00 | 73 | 1021.2 |
| 20260510105904 | 51 | 205 | 5.0 | 8.0 | 0.00 | 0.00 | 0.00 | 72 | 1021.5 |
| 20260510105403 | 51 | 206 | 5.0 | 9.0 | 0.00 | 0.00 | 0.00 | 72 | 1021.6 |
| 20260510104903 | 51 | 212 | 1.0 | 6.0 | 0.00 | 0.00 | 0.00 | 71 | 1021.5 |
| 20260510103903 | 51 | 213 | 3.0 | 7.0 | 0.00 | 0.00 | 0.00 | 72 | 1021.5 |
| 20260510103404 | 50 | 207 | 5.0 | 7.0 | 0.00 | 0.00 | 0.00 | 73 | 1021.5 |
| 20260510102904 | 50 | 206 | 3.0 | 9.0 | 0.00 | 0.00 | 0.00 | 72 | 1021.6 |
| 20260510102403 | 50 | 206 | 4.0 | 9.0 | 0.00 | 0.00 | 0.00 | 71 | 1021.9 |
| 20260510101903 | 50 | 245 | 4.0 | 7.0 | 0.00 | 0.00 | 0.00 | 72 | 1021.8 |
| 20260510101404 | 50 | 268 | 1.0 | 7.0 | 0.00 | 0.00 | 0.00 | 74 | 1022.0 |
| 20260510100904 | 50 | 270 | 1.0 | 3.0 | 0.00 | 0.00 | 0.00 | 75 | 1022.1 |
| 20260510095905 | 49 | 271 | 2.0 | 3.0 | 0.00 | 0.00 | 0.00 | 75 | 1022.0 |
| 20260510095403 | 49 | 272 | 2.0 | 6.0 | 0.00 | 0.00 | 0.00 | 75 | 1022.0 |
| 20260510094905 | 49 | 273 | 1.0 | 5.0 | 0.00 | 0.00 | 0.00 | 76 | 1022.1 |
| 20260510093903 | 48 | 267 | 2.0 | 6.0 | 0.00 | 0.00 | 0.00 | 76 | 1022.3 |
| 20260510093404 | 48 | 268 | 3.0 | 5.0 | 0.00 | 0.00 | 0.00 | 75 | 1022.5 |
| 20260510092905 | 48 | 267 | 1.0 | 6.0 | 0.00 | 0.00 | 0.00 | 76 | 1022.5 |
| 20260510092403 | 48 | 265 | 2.0 | 6.0 | 0.00 | 0.00 | 0.00 | 75 | 1022.6 |
| 20260510091904 | 48 | 264 | 2.0 | 6.0 | 0.00 | 0.00 | 0.00 | 74 | 1022.7 |
| 20260510091403 | 48 | 263 | 3.0 | 8.0 | 0.00 | 0.00 | 0.00 | 75 | 1022.8 |
| 20260510090903 | 48 | 258 | 2.0 | 8.0 | 0.00 | 0.00 | 0.00 | 77 | 1022.8 |
| 20260510090405 | 47 | 251 | 1.0 | 3.0 | 0.00 | 0.00 | 0.00 | 76 | 1022.9 |
| 20260510085903 | 46 | 251 | 1.0 | 3.0 | 0.00 | 0.00 | 0.00 | 77 | 1023.0 |
| 20260510085403 | 45 | 251 | 2.0 | 3.0 | 0.00 | 0.00 | 0.00 | 78 | 1023.0 |
| 20260510084904 | 45 | 251 | 1.0 | 3.0 | 0.00 | 0.00 | 0.00 | 77 | 1023.1 |
| 20260510084404 | 44 | 251 | 0.0 | 0.0 | 0.00 | 0.00 | 0.00 | 77 | 1023.3 |
| 20260510083904 | 44 | 251 | 0.0 | 1.0 | 0.00 | 0.00 | 0.00 | 77 | 1023.3 |
| 20260510083404 | 44 | 251 | 0.0 | 2.0 | 0.00 | 0.00 | 0.00 | 78 | 1023.4 |
| 20260510082404 | 43 | 251 | 1.0 | 3.0 | 0.00 | 0.00 | 0.00 | 80 | 1023.4 |
| 20260510081903 | 42 | 251 | 1.0 | 2.0 | 0.00 | 0.00 | 0.00 | 81 | 1023.4 |
| 20260510081403 | 42 | 251 | 1.0 | 5.0 | 0.00 | 0.00 | 0.00 | 82 | 1023.4 |
| 20260510080904 | 41 | 266 | 1.0 | 3.0 | 0.00 | 0.00 | 0.00 | 82 | 1023.5 |
| 20260510080404 | 40 | 266 | 0.0 | 2.0 | 0.00 | 0.00 | 0.00 | 83 | 1023.5 |
| 20260510075404 | 39 | 266 | 1.0 | 3.0 | 0.00 | 0.00 | 0.00 | 85 | 1023.7 |
| 20260510074905 | 38 | 266 | 2.0 | 3.0 | 0.00 | 0.00 | 0.00 | 86 | 1023.8 |
| 20260510074405 | 38 | 265 | 1.0 | 3.0 | 0.00 | 0.00 | 0.00 | 88 | 1023.8 |
| 20260510073904 | 38 | 265 | 0.0 | 0.0 | 0.00 | 0.00 | 0.00 | 89 | 1023.8 |
| 20260510073403 | 37 | 265 | 0.0 | 0.0 | 0.00 | 0.00 | 0.00 | 90 | 1023.8 |
| 20260510072903 | 37 | 265 | 0.0 | 0.0 | 0.00 | 0.00 | 0.00 | 91 | 1023.9 |
| 20260510072404 | 37 | 265 | 0.0 | 0.0 | 0.00 | 0.00 | 0.00 | 92 | 1024.0 |
| 20260510071905 | 36 | 265 | 0.0 | 0.0 | 0.00 | 0.00 | 0.00 | 92 | 1024.1 |
| 20260510071403 | 36 | 265 | 0.0 | 0.0 | 0.00 | 0.00 | 0.00 | 93 | 1024.1 |
| 20260510070404 | 35 | 265 | 0.0 | 0.0 | 0.00 | 0.00 | 0.00 | 93 | 1024.1 |
| 20260510065904 | 34 | 265 | 0.0 | 0.0 | 0.00 | 0.00 | 0.00 | 94 | 1024.2 |
| 20260510065403 | 33 | 265 | 0.0 | 0.0 | 0.00 | 0.00 | 0.00 | 94 | 1024.3 |
| 20260510064403 | 33 | 265 | 0.0 | 0.0 | 0.00 | 0.00 | 0.00 | 94 | 1024.3 |
| 20260510063904 | 32 | 265 | 0.0 | 0.0 | 0.00 | 0.00 | 0.00 | 93 | 1024.5 |
| 20260510062905 | 32 | 265 | 0.0 | 0.0 | 0.00 | 0.00 | 0.00 | 93 | 1024.5 |
| 20260510062404 | 31 | 265 | 0.0 | 0.0 | 0.00 | 0.00 | 0.00 | 93 | 1024.5 |
| 20260510061903 | 31 | 265 | 0.0 | 0.0 | 0.00 | 0.00 | 0.00 | 93 | 1024.5 |
| 20260510061403 | 30 | 265 | 0.0 | 0.0 | 0.00 | 0.00 | 0.00 | 92 | 1024.6 |
| 20260510060904 | 30 | 265 | 0.0 | 0.0 | 0.00 | 0.00 | 0.00 | 92 | 1024.5 |
| 20260510060404 | 30 | 265 | 0.0 | 0.0 | 0.00 | 0.00 | 0.00 | 92 | 1024.5 |
| 20260510055903 | 30 | 265 | 0.0 | 0.0 | 0.00 | 0.00 | 0.00 | 92 | 1024.5 |
| 20260510055404 | 30 | 265 | 0.0 | 0.0 | 0.00 | 0.00 | 0.00 | 92 | 1024.5 |
| 20260510054903 | 30 | 265 | 0.0 | 0.0 | 0.00 | 0.00 | 0.00 | 91 | 1024.5 |
| 20260510054405 | 30 | 265 | 0.0 | 0.0 | 0.00 | 0.00 | 0.00 | 92 | 1024.4 |
| 20260510053903 | 30 | 265 | 0.0 | 0.0 | 0.00 | 0.00 | 0.00 | 92 | 1024.4 |
| 20260510053405 | 30 | 265 | 0.0 | 0.0 | 0.00 | 0.00 | 0.00 | 91 | 1024.5 |
| 20260510052904 | 30 | 265 | 0.0 | 1.0 | 0.00 | 0.00 | 0.00 | 91 | 1024.6 |
| 20260510051903 | 30 | 265 | 0.0 | 0.0 | 0.00 | 0.00 | 0.00 | 91 | 1024.5 |
| 20260510051403 | 30 | 265 | 0.0 | 0.0 | 0.00 | 0.00 | 0.00 | 91 | 1024.6 |
| 20260510050904 | 30 | 265 | 0.0 | 0.0 | 0.00 | 0.00 | 0.00 | 91 | 1024.6 |
| 20260510050405 | 30 | 265 | 0.0 | 0.0 | 0.00 | 0.00 | 0.00 | 91 | 1024.6 |
| 20260510045904 | 30 | 265 | 0.0 | 0.0 | 0.00 | 0.00 | 0.00 | 91 | 1024.7 |
| 20260510044904 | 30 | 265 | 0.0 | 0.0 | 0.00 | 0.00 | 0.00 | 91 | 1024.6 |
| 20260510043904 | 30 | 265 | 0.0 | 0.0 | 0.00 | 0.00 | 0.00 | 90 | 1024.6 |
| 20260510043405 | 30 | 265 | 0.0 | 0.0 | 0.00 | 0.00 | 0.00 | 90 | 1024.7 |
| 20260510042403 | 30 | 270 | 0.0 | 0.0 | 0.00 | 0.00 | 0.00 | 90 | 1024.7 |
| 20260510041904 | 30 | 54 | 0.0 | 0.0 | 0.00 | 0.00 | 0.00 | 90 | 1024.7 |
| 20260510041404 | 30 | 21 | 0.0 | 0.0 | 0.00 | 0.00 | 0.00 | 90 | 1024.8 |
| 20260510040904 | 30 | 21 | 0.0 | 0.0 | 0.00 | 0.00 | 0.00 | 90 | 1024.8 |
| 20260510040404 | 30 | 21 | 0.0 | 0.0 | 0.00 | 0.00 | 0.00 | 90 | 1024.9 |
| 20260510035904 | 30 | 21 | 0.0 | 0.0 | 0.00 | 0.00 | 0.00 | 90 | 1024.9 |
| 20260510034904 | 31 | 21 | 0.0 | 0.0 | 0.00 | 0.00 | 0.00 | 90 | 1024.9 |
| 20260510034405 | 31 | 21 | 0.0 | 2.0 | 0.00 | 0.00 | 0.00 | 90 | 1025.0 |
| 20260510033907 | 31 | 21 | 0.0 | 1.0 | 0.00 | 0.00 | 0.00 | 90 | 1025.0 |
| 20260510033405 | 31 | 24 | 0.0 | 0.0 | 0.00 | 0.00 | 0.00 | 90 | 1025.0 |
| 20260510032904 | 31 | 22 | 0.0 | 0.0 | 0.00 | 0.00 | 0.00 | 90 | 1025.0 |
| 20260510031903 | 31 | 22 | 0.0 | 0.0 | 0.00 | 0.00 | 0.00 | 90 | 1025.1 |
| 20260510031404 | 31 | 22 | 0.0 | 0.0 | 0.00 | 0.00 | 0.00 | 90 | 1025.1 |
| 20260510030904 | 31 | 22 | 0.0 | 0.0 | 0.00 | 0.00 | 0.00 | 89 | 1025.2 |
| 20260510025904 | 31 | 22 | 0.0 | 0.0 | 0.00 | 0.00 | 0.00 | 89 | 1025.1 |
| 20260510024905 | 31 | 22 | 0.0 | 0.0 | 0.00 | 0.00 | 0.00 | 89 | 1025.1 |
| 20260510024404 | 31 | 22 | 0.0 | 0.0 | 0.00 | 0.00 | 0.00 | 88 | 1025.1 |
| 20260510023405 | 31 | 22 | 0.0 | 0.0 | 0.00 | 0.00 | 0.00 | 88 | 1025.0 |
| 20260510022906 | 31 | 22 | 0.0 | 0.0 | 0.00 | 0.00 | 0.00 | 88 | 1025.0 |
| 20260510022405 | 31 | 22 | 0.0 | 1.0 | 0.00 | 0.00 | 0.00 | 88 | 1025.0 |
| 20260510021904 | 31 | 22 | 0.0 | 0.0 | 0.00 | 0.00 | 0.00 | 88 | 1025.2 |
| 20260510020903 | 32 | 22 | 0.0 | 0.0 | 0.00 | 0.00 | 0.00 | 88 | 1025.2 |
| 20260510020404 | 32 | 22 | 0.0 | 0.0 | 0.00 | 0.00 | 0.00 | 88 | 1025.3 |
| 20260510015905 | 32 | 22 | 0.0 | 0.0 | 0.00 | 0.00 | 0.00 | 88 | 1025.2 |
| 20260510015405 | 32 | 22 | 0.0 | 0.0 | 0.00 | 0.00 | 0.00 | 88 | 1025.2 |
| 20260510014905 | 32 | 22 | 0.0 | 3.0 | 0.00 | 0.00 | 0.00 | 88 | 1025.1 |
| 20260510014404 | 32 | 22 | 2.0 | 3.0 | 0.00 | 0.00 | 0.00 | 88 | 1025.0 |
| 20260510013903 | 32 | 22 | 1.0 | 3.0 | 0.00 | 0.00 | 0.00 | 87 | 1025.1 |
| 20260510013405 | 32 | 22 | 1.0 | 3.0 | 0.00 | 0.00 | 0.00 | 87 | 1025.2 |
| 20260510012405 | 32 | 22 | 0.0 | 0.0 | 0.00 | 0.00 | 0.00 | 86 | 1025.3 |
| 20260510011406 | 32 | 22 | 0.0 | 2.0 | 0.00 | 0.00 | 0.00 | 85 | 1025.3 |
| 20260510010904 | 33 | 22 | 0.0 | 0.0 | 0.00 | 0.00 | 0.00 | 85 | 1025.4 |
| 20260510010404 | 33 | 22 | 0.0 | 0.0 | 0.00 | 0.00 | 0.00 | 85 | 1025.3 |
| 20260510005904 | 33 | 22 | 0.0 | 0.0 | 0.00 | 0.00 | 0.00 | 85 | 1025.4 |
| 20260510005404 | 33 | 22 | 0.0 | 2.0 | 0.00 | 0.00 | 0.00 | 84 | 1025.4 |
| 20260510004905 | 33 | 22 | 0.0 | 0.0 | 0.00 | 0.00 | 0.00 | 84 | 1025.4 |
| 20260510004404 | 33 | 22 | 0.0 | 2.0 | 0.00 | 0.00 | 0.00 | 84 | 1025.4 |
| 20260510003904 | 33 | 22 | 0.0 | 0.0 | 0.00 | 0.00 | 0.00 | 83 | 1025.3 |
| 20260510003405 | 34 | 22 | 0.0 | 0.0 | 0.00 | 0.00 | 0.00 | 83 | 1025.3 |
| 20260510002904 | 34 | 22 | 0.0 | 1.0 | 0.00 | 0.00 | 0.00 | 83 | 1025.4 |
| 20260510002405 | 34 | 22 | 0.0 | 2.0 | 0.00 | 0.00 | 0.00 | 82 | 1025.4 |
| 20260510001904 | 34 | 22 | 0.0 | 0.0 | 0.00 | 0.00 | 0.00 | 82 | 1025.6 |
| 20260510000905 | 35 | 22 | 0.0 | 0.0 | 0.00 | 0.00 | 0.00 | 81 | 1025.6 |
| 20260510000404 | 35 | 22 | 0.0 | 0.0 | 0.00 | 0.00 | 0.00 | 81 | 1025.7 |
| 20260509235904 | 35 | 22 | 0.0 | 1.0 | 0.00 | 0.00 | 0.00 | 81 | 1025.8 |
| 20260509235404 | 36 | 22 | 1.0 | 2.0 | 0.00 | 0.00 | 0.00 | 80 | 1025.7 |
| 20260509232905 | 37 | 22 | 0.0 | 0.0 | 0.00 | 0.00 | 0.00 | 77 | 1025.8 |
| 20260509231904 | 38 | 22 | 0.0 | 0.0 | 0.00 | 0.00 | 0.00 | 76 | 1025.8 |
| 20260509230904 | 38 | 22 | 0.0 | 0.0 | 0.00 | 0.00 | 0.00 | 75 | 1025.9 |
| 20260509230405 | 39 | 22 | 1.0 | 1.0 | 0.00 | 0.00 | 0.00 | 75 | 1025.8 |
| 20260509225905 | 39 | 22 | 0.0 | 0.0 | 0.00 | 0.00 | 0.00 | 75 | 1025.7 |
| 20260509225404 | 39 | 22 | 0.0 | 0.0 | 0.00 | 0.00 | 0.00 | 74 | 1025.7 |
| 20260509224405 | 39 | 22 | 0.0 | 0.0 | 0.00 | 0.00 | 0.00 | 73 | 1025.7 |
| 20260509223904 | 40 | 22 | 0.0 | 0.0 | 0.00 | 0.00 | 0.00 | 73 | 1025.6 |
| 20260509223404 | 40 | 22 | 0.0 | 0.0 | 0.00 | 0.00 | 0.00 | 73 | 1025.6 |
| 20260509222906 | 40 | 22 | 0.0 | 0.0 | 0.00 | 0.00 | 0.00 | 73 | 1025.6 |
| 20260509220905 | 41 | 22 | 0.0 | 0.0 | 0.00 | 0.00 | 0.00 | 70 | 1025.7 |
| 20260509215904 | 41 | 22 | 0.0 | 2.0 | 0.00 | 0.00 | 0.00 | 70 | 1025.8 |
| 20260509215405 | 41 | 22 | 0.0 | 3.0 | 0.00 | 0.00 | 0.00 | 69 | 1025.8 |
| 20260509214905 | 42 | 22 | 0.0 | 2.0 | 0.00 | 0.00 | 0.00 | 69 | 1025.8 |
| 20260509214404 | 42 | 22 | 0.0 | 0.0 | 0.00 | 0.00 | 0.00 | 68 | 1025.8 |
| 20260509213905 | 42 | 22 | 0.0 | 1.0 | 0.00 | 0.00 | 0.00 | 67 | 1025.8 |
| 20260509213404 | 42 | 22 | 0.0 | 2.0 | 0.00 | 0.00 | 0.00 | 67 | 1025.8 |
| 20260509212906 | 42 | 22 | 1.0 | 3.0 | 0.00 | 0.00 | 0.00 | 66 | 1025.8 |
| 20260509212405 | 42 | 22 | 0.0 | 2.0 | 0.00 | 0.00 | 0.00 | 67 | 1025.8 |
| 20260509211905 | 42 | 22 | 0.0 | 2.0 | 0.00 | 0.00 | 0.00 | 66 | 1025.7 |
| 20260509211404 | 42 | 22 | 0.0 | 3.0 | 0.00 | 0.00 | 0.00 | 67 | 1025.6 |
| 20260509210904 | 43 | 22 | 0.0 | 0.0 | 0.00 | 0.00 | 0.00 | 68 | 1025.6 |
| 20260509210403 | 43 | 22 | 0.0 | 3.0 | 0.00 | 0.00 | 0.00 | 65 | 1025.5 |
| 20260509205905 | 43 | 22 | 1.0 | 6.0 | 0.00 | 0.00 | 0.00 | 65 | 1025.6 |
| 20260509205406 | 43 | 22 | 1.0 | 2.0 | 0.00 | 0.00 | 0.00 | 65 | 1025.6 |
| 20260509204905 | 44 | 22 | 0.0 | 3.0 | 0.00 | 0.00 | 0.00 | 65 | 1025.6 |
| 20260509204405 | 44 | 22 | 0.0 | 0.0 | 0.00 | 0.00 | 0.00 | 65 | 1025.5 |
| 20260509203404 | 45 | 22 | 0.0 | 0.0 | 0.00 | 0.00 | 0.00 | 63 | 1025.5 |
| 20260509202904 | 46 | 22 | 0.0 | 0.0 | 0.00 | 0.00 | 0.00 | 63 | 1025.4 |
| 20260509201904 | 47 | 22 | 0.0 | 0.0 | 0.00 | 0.00 | 0.00 | 61 | 1025.2 |
| 20260509200404 | 48 | 22 | 0.0 | 1.0 | 0.00 | 0.00 | 0.00 | 59 | 1025.1 |